Weather History for KGED - May, 2014

Change the Weather History Date:

Saturday, May 24, 2014

  Actual Average Record
Temperature  
Mean Temperature 65 °F 66 °F  
Max Temperature 75 °F 76 °F 93 °F (1964)
Min Temperature 55 °F 55 °F 37 °F (1963)
Degree Days  
Heating Degree Days 0 3  
Month to date heating degree days 55 121  
Since 1 July heating degree days 4488 4381  
Cooling Degree Days 0 3  
Month to date cooling degree days 60 47  
Year to date cooling degree days 72 67  
Growing Degree Days 14 (Base 50)    
Moisture  
Dew Point 50 °F    
Average Humidity 65    
Maximum Humidity 84    
Minimum Humidity 46    
Precipitation  
Precipitation 0.00 in 0.14 in 1.44 in (1951)
Month to date precipitation 2.53 2.64  
Year to date precipitation 16.58 16.03  
Sea Level Pressure  
Sea Level Pressure 30.04 in    
Wind  
Wind Speed 7 mph (ESE)    
Max Wind Speed 17 mph    
Max Gust Speed 35 mph    
Visibility 10 miles    
Events      
T = Trace of Precipitation, MM = Missing Value Source: NWS Daily Summary

Daily Weather History Graph

Daily Weather History Graph

Search for Another Location

Airport or City:

Trip Planner

Search our weather history database for the weather conditions in past years. The results will help you decide how hot, cold, wet, or windy it might be!

Date:

Astronomy

May. 24, 2014 Rise Set
Actual Time 5:42 AM EDT 8:14 PM EDT
Civil Twilight 5:12 AM EDT 8:45 PM EDT
Nautical Twilight 4:34 AM EDT 9:23 PM EDT
Astronomical Twilight 3:51 AM EDT 10:05 PM EDT
Moon 3:07 AM EDT (5/24) 4:11 PM EDT (5/24)
Length of Visible Light 15h 33m
Length of Day
14h 31m
Waning Crescent, 18% of the Moon is Illuminated
May 24
Waning Crescent
May 28
New
Jun 5
First Quarter
Jun 13
Full
Jun 19
Last Quarter

Hourly Weather History & Observations

Time (EDT) Temp. Dew Point Humidity Pressure Visibility Wind Dir Wind Speed Gust Speed Precip Events Conditions
12:54 AM 61.0 °F 45.0 °F 56% 29.98 in 10.0 mi Variable 5.8 mph - N/A   Clear
1:54 AM 59.0 °F 45.0 °F 60% 29.98 in 10.0 mi Variable 6.9 mph - N/A   Clear
2:54 AM 57.9 °F 45.0 °F 62% 29.98 in 10.0 mi Variable 5.8 mph - N/A   Clear
3:54 AM 57.0 °F 46.0 °F 67% 29.99 in 10.0 mi Variable 5.8 mph - N/A   Clear
4:54 AM 57.0 °F 45.0 °F 64% 29.99 in 10.0 mi Variable 5.8 mph - N/A   Clear
5:54 AM 55.9 °F 46.0 °F 69% 30.01 in 10.0 mi Variable 5.8 mph - N/A   Overcast
6:54 AM 55.9 °F 46.9 °F 72% 30.02 in 10.0 mi Variable 4.6 mph - N/A   Partly Cloudy
7:54 AM 57.9 °F 48.0 °F 70% 30.05 in 10.0 mi Variable 4.6 mph - N/A   Overcast
8:54 AM 64.0 °F 48.9 °F 58% 30.06 in 10.0 mi Variable 6.9 mph - N/A   Clear
9:54 AM 66.0 °F 50.0 °F 56% 30.06 in 10.0 mi NE 10.4 mph 18.4 mph N/A   Partly Cloudy
10:54 AM 66.9 °F 51.1 °F 57% 30.06 in 10.0 mi Variable 5.8 mph 26.5 mph N/A   Mostly Cloudy
11:54 AM 69.1 °F 51.1 °F 53% 30.06 in 10.0 mi ENE 9.2 mph - N/A   Overcast
12:54 PM 69.1 °F 52.0 °F 54% 30.07 in 10.0 mi Variable 6.9 mph - N/A   Overcast
2:54 PM 73.0 °F 52.0 °F 48% 30.04 in 10.0 mi Variable 3.5 mph 18.4 mph N/A   Partly Cloudy
3:54 PM 73.0 °F 53.1 °F 49% 30.03 in 10.0 mi ENE 11.5 mph 24.2 mph N/A   Scattered Clouds
4:54 PM 73.0 °F 51.1 °F 46% 30.03 in 10.0 mi Variable 5.8 mph 18.4 mph N/A   Overcast
5:54 PM 73.0 °F 52.0 °F 48% 30.03 in 10.0 mi Variable 4.6 mph - N/A   Partly Cloudy
6:54 PM 72.0 °F 52.0 °F 49% 30.04 in 10.0 mi Variable 4.6 mph - N/A   Mostly Cloudy
7:54 PM 72.0 °F 51.1 °F 48% 30.06 in 10.0 mi SSE 5.8 mph - N/A   Mostly Cloudy
8:54 PM 64.0 °F 55.9 °F 75% 30.07 in 10.0 mi SSE 17.3 mph - N/A   Partly Cloudy
9:54 PM 62.1 °F 55.0 °F 78% 30.09 in 10.0 mi SSE 11.5 mph - N/A   Mostly Cloudy
11:54 PM 60.1 °F 54.0 °F 80% 30.10 in 10.0 mi ESE 3.5 mph - N/A   Clear